CAPE
984 952 1128 1467 1100 925 64 60 55 267 161 116 64 24 25 44 0 3 2 1 0 4 229 740 1577 1044 696 1022 1119 1102 1665 1999 2179 2429 2796 2516 2447 2215 2220 2261 1974 2199 1925 1806 1766 1863 1308 1185 1402
912 1257 1179 1786 691 9 53 51 121 330 176 54 12 93 79 55 24 75 46 69 98 90 83 399 1470 1382 954 1095 1671 1512 1552 2112 2450 2232 2197 2278 2681 2771 2444 1708 1947 2345 2114 1614 1249 1202 1758 1014 715
1014 1442 1300 881 789 25 35 39 48 402 183 47 2 4 25 34 49 108 64 43 58 37 115 277 1049 1085 1049 1276 1873 1803 1956 2344 2610 2363 2256 2367 2454 2866 1899 1841 2136 2113 2061 1454 1092 783 336 387 425
1321 1342 1401 950 70 55 13 31 151 116 43 22 4 14 21 45 42 21 24 55 18 54 162 992 708 855 1349 1675 2429 1856 2351 2145 2413 2644 2428 2690 2448 2107 2091 2214 2251 2486 2021 1650 1281 713 282 110 243
1454 1091 878 349 77 49 50 16 206 206 121 24 16 3 5 9 4 50 81 50 60 162 258 484 1552 1789 1574 1047 1946 1887 2701 2558 2203 2409 2497 2260 2003 2129 2471 2103 2171 2269 2288 1937 1673 1222 427 148 177
99 294 512 87 86 61 59 59 221 252 156 69 0 0 3 30 101 205 112 53 57 161 235 256 946 1387 1386 1659 1748 2181 2488 2019 2356 2131 2348 1957 1758 1936 2196 2079 2032 2045 1994 2134 1869 1674 1099 303 123
63 256 484 27 6 65 17 26 20 174 45 36 0 0 9 32 183 250 101 78 59 39 43 111 358 233 653 1460 1589 2054 1753 2082 2474 2154 2438 2119 1526 1675 1941 2202 2246 1879 1912 1861 1914 1901 1746 1145 915
36 349 557 25 0 2 44 29 31 55 70 13 0 0 7 29 62 98 164 120 26 18 3 25 151 137 531 799 1385 1706 1990 2030 2001 2379 2271 1574 1269 1654 1925 2357 2349 1991 1832 1862 1774 1793 2071 2334 2119
107 652 631 36 0 6 15 9 11 47 4 2 0 0 0 52 64 44 17 164 62 96 63 201 312 363 487 673 140 2323 1921 2100 1993 2076 1935 2179 1009 953 1405 1874 2064 2004 1973 2229 2522 2703 2554 2304 2757
97 317 412 41 16 25 0 14 7 5 0 0 0 0 1 4 27 37 28 72 192 121 164 202 274 400 699 656 890 1286 1322 1700 1425 1535 1507 1350 1487 1498 1135 1297 2604 2616 3028 3262 3168 3182 3086 3026 1518
174 439 526 250 20 9 5 20 18 4 0 0 0 0 11 32 37 63 25 177 211 236 202 64 248 545 463 607 986 1228 1382 1423 1361 1423 1155 1419 1723 1476 495 592 981 1325 1823 1684 1985 2557 2239 1641 1576
460 388 628 762 518 139 81 12 0 3 0 0 0 0 0 11 25 14 24 1 92 267 448 682 524 495 314 313 934 949 1187 1429 1797 1657 1943 1618 1039 185 281 506 796 1431 1475 1677 1496 1305 1525 1430 1345
443 494 803 899 478 488 613 10 0 0 0 0 0 0 0 0 4 16 27 20 5 205 459 546 596 695 264 641 934 1064 1259 1653 1371 1464 1533 1237 1094 1282 1080 824 853 971 1666 1404 1080 1252 1721 1457 1013
456 785 791 1015 314 334 520 762 33 0 0 0 0 0 0 6 2 14 18 8 32 130 271 332 568 596 1274 1068 1033 998 1180 1551 1147 1144 1078 1136 1294 871 678 592 886 1097 1117 1073 1345 1330 1663 2168 1364
473 552 752 920 743 407 700 367 43 0 0 0 0 0 0 4 0 3 16 17 64 136 239 216 368 680 526 852 660 976 1122 1379 1200 804 777 1146 856 1031 1666 1283 1034 1009 679 1080 1348 1532 1821 1752 1243
435 526 201 757 787 206 445 428 97 7 0 0 0 0 0 0 0 0 5 15 50 176 138 161 237 581 335 385 583 961 777 828 999 721 720 1140 1330 1040 1496 1689 718 895 913 1391 1491 1860 1607 992 1065
411 82 421 538 769 293 71 566 495 161 1 0 0 0 0 0 0 0 0 0 1 39 65 85 138 150 270 905 244 769 606 570 837 822 616 1359 1120 920 1006 2002 1451 600 767 994 1740 1861 1361 1305 1704
79 131 562 529 495 821 462 597 619 91 45 36 5 0 0 0 0 0 0 0 0 35 71 109 57 179 88 890 335 635 874 417 587 694 587 917 1006 1124 1238 1750 1837 657 1026 2269 1459 1899 1663 2094 1801
21 0 15 223 0 0 206 502 491 198 153 184 157 19 0 0 0 0 0 0 11 164 32 117 38 183 204 229 681 485 486 213 236 407 685 912 994 1020 1450 1516 1735 388 621 1681 1865 1656 1828 1917 2122
15 1 0 0 0 0 3 3 532 450 380 292 276 230 44 0 0 0 0 0 4 30 170 116 525 332 408 56 156 517 432 187 115 413 759 901 1145 812 1022 1425 1421 1388 437 1499 1125 1810 1854 2227 1961
0 3 0 0 0 0 0 0 92 508 445 372 331 342 285 8 0 0 0 0 0 62 40 362 546 297 428 206 87 256 476 630 544 826 1013 890 1078 885 752 845 1153 1715 1825 1162 1101 1702 1814 1864 1835
0 0 0 0 0 0 0 0 0 402 420 362 359 298 329 232 36 29 20 1 0 162 172 303 601 522 503 385 232 266 405 370 475 828 868 1092 645 1027 1132 722 1518 1565 1488 1140 1360 1681 1722 2427 1300
0 0 0 0 0 0 0 0 0 373 414 305 318 473 316 224 342 42 53 67 93 80 276 381 680 827 395 493 801 363 592 347 409 635 736 628 1043 772 738 1074 843 1696 1204 1137 1753 1944 2341 1947 2119
0 0 0 0 0 0 0 0 0 339 457 419 462 404 454 461 383 210 201 361 177 137 251 565 778 1019 577 329 525 887 797 713 613 829 524 880 600 1071 750 822 811 1832 1312 1105 698 1508 1488 1474 1879
0 0 0 0 0 0 0 0 245 463 436 461 431 286 318 642 181 20 89 719 739 365 159 806 784 1196 1022 980 589 648 939 898 999 1162 674 1280 796 784 1023 692 1035 925 1841 1780 1484 1013 2147 1750 1635
0 0 0 0 0 0 0 39 438 532 451 404 307 229 390 359 11 234 326 439 565 639 435 645 952 829 1393 1487 1103 597 1009 1359 1352 698 1483 1596 1134 813 799 948 962 1139 1144 1997 1423 1982 1469 1491 2267
0 0 0 0 0 0 19 135 129 132 112 85 54 1 0 7 74 7 403 424 523 591 323 478 498 1134 1139 1139 1566 1234 1076 1068 1647 1952 1379 1740 1223 1017 1018 823 737 1409 1246 1860 1756 965 1403 2287 1737
0 0 0 0 0 0 7 75 168 161 145 82 39 12 11 27 24 88 104 37 6 12 121 289 333 1555 1351 1520 1289 1717 1465 1067 1237 1778 1857 1515 1989 1261 998 1031 820 560 1563 1626 1642 1242 1255 1533 2016
0 0 0 0 0 0 0 140 167 113 70 44 5 0 0 0 0 0 0 6 45 29 86 160 219 617 1023 1280 1595 1541 1770 1587 1110 1205 1545 1775 1413 1676 1381 1323 996 684 1040 1669 1589 1991 1646 1280 944
0 0 0 0 0 0 0 31 51 51 47 3 0 0 0 0 0 0 0 0 0 0 0 0 95 144 615 1488 1837 1557 1649 1917 1798 1534 1213 1386 1780 1680 1628 1979 1400 1176 1060 1733 1654 1221 1049 1721 1857
CIN
-67 -132 -138 -71 -57 -81 -5 -5 -17 -34 -67 -54 -44 -75 -101 -58 -3 -62 -26 -57 -4 -146 -64 -1 0 0 -9 -2 -5 -6 0 0 0 0 0 0 0 0 0 0 0 0 0 0 0 0 -1 -5 -3
-72 -109 -150 -53 -72 -3 -2 -9 -25 -60 -41 -57 -53 -131 -120 -109 -163 -110 -96 -83 -144 -76 -79 -13 0 0 -1 -4 -1 -1 0 -1 0 0 0 0 0 0 0 0 0 0 0 0 0 0 0 -14 -33
-52 -14 -60 -63 -70 -6 -5 -9 -36 -9 -4 -27 -39 -29 -111 -94 -99 -76 -57 -70 -62 -66 -52 -16 0 0 0 -2 0 0 0 0 0 0 0 0 0 0 0 0 0 0 0 0 -2 -25 -91 -71 -71
-48 -102 -57 -72 -15 -12 -8 0 -25 -37 -34 -23 -120 -66 -85 -50 -97 -116 -65 -62 -114 -97 -54 0 0 0 0 0 0 0 0 0 0 0 0 0 0 0 0 0 0 0 0 0 -7 -52 -128 -172 -124
-142 -110 -102 -54 -17 -11 -19 -9 -43 -44 -26 -22 -70 -7 -7 -13 -22 -70 -48 -67 -111 -56 -30 -1 0 0 0 -5 0 -4 0 0 0 0 0 0 -1 0 0 -1 -3 -3 -1 -5 -6 -26 -119 -178 -163
-300 -179 -107 -3 -10 -15 -14 -2 -24 -36 -65 -71 0 0 -7 -45 -45 -26 -47 -62 -103 -68 -23 -19 0 0 0 0 -1 0 0 0 0 0 0 -6 -12 -4 -7 -21 -25 -26 -23 -14 -20 -25 -53 -154 -221
-15 -110 -73 -7 -4 -4 -1 -10 -9 -50 -71 -58 0 0 -3 -2 -36 -52 -54 -94 -118 -112 -97 -44 -8 -22 -2 0 -3 -1 -7 0 0 0 0 -9 -25 -22 -34 -41 -50 -55 -49 -39 -40 -48 -58 -85 -103
-4 -113 -83 -8 0 -5 -12 -10 -6 -24 -45 -41 0 0 -3 -1 -48 -36 -60 -59 -113 -114 -35 -78 -40 -38 -19 -19 -18 -16 -11 0 -1 -1 0 -20 -37 -40 -47 -65 -75 -65 -60 -59 -74 -77 -71 -68 -72
-88 -44 -72 -4 0 -2 -6 -10 -5 -27 -5 -10 0 0 0 -2 -24 -80 -10 -40 -91 -102 -146 -59 -43 -36 -27 -45 -101 -6 -12 -1 -13 -12 -20 -16 -71 -77 -96 -107 -94 -79 -68 -66 -65 -70 -78 -92 -76
-114 -183 -83 -17 -4 -1 0 -6 -6 -2 0 0 0 0 -3 -15 -14 -33 -105 -63 -42 -63 -78 -98 -74 -41 -25 -37 -58 -50 -40 -24 -39 -40 -50 -59 -45 -46 -88 -133 -77 -79 -59 -54 -52 -63 -87 -93 -161
-40 -55 -22 -13 -7 -4 -2 -4 -2 -4 0 0 0 0 -2 -19 -31 -55 -13 -48 -52 -68 -67 -124 -76 -62 -59 -55 -63 -71 -63 -52 -64 -42 -57 -48 -50 -52 -113 -96 -165 -165 -177 -168 -124 -123 -141 -166 -29
-16 -57 -9 -9 -22 -10 -12 -5 0 -2 0 0 0 0 0 -2 -4 -9 0 -12 -120 -27 -47 -38 -64 -70 -52 -97 -87 -88 -63 -39 -25 -23 -16 -50 -75 -130 -132 -7 -36 -80 -66 -29 -46 -14 -103 -148 -46
-15 -17 -3 -17 -11 -46 -20 -8 0 0 0 0 0 0 0 0 -12 -8 -17 -15 -10 -53 -33 -38 -32 -38 -76 -17 -41 -20 -41 -38 -31 -39 -33 -23 -38 -26 -63 -51 -68 -19 -36 -57 -17 -15 -79 -48 -29
-14 -10 -8 -7 -36 -40 -13 -49 -35 0 0 0 0 0 0 -2 -2 0 -5 -11 -132 -77 -61 -50 -39 -17 -36 -34 -30 -24 -46 -26 -39 -67 -23 -28 -36 -43 -48 -32 -65 -48 -68 -69 -79 -51 -96 -93 -52
-38 -35 -58 -31 -17 -39 -38 -13 -103 0 0 0 0 0 0 -2 0 0 -9 0 -96 -57 -53 -64 -43 -74 -66 -40 -28 -50 -47 -50 -37 -61 -35 -39 -65 -34 -59 -73 -41 -57 -32 -35 -87 -97 -112 -90 -56
-81 -38 -89 -37 -41 -62 -54 -56 -52 -18 0 0 0 0 0 0 0 0 -5 -4 -68 -44 -90 -79 -59 -68 -92 -42 -63 -41 -35 -20 -27 -79 -68 -48 -32 -58 -53 -46 -80 -54 -78 -120 -77 -42 -60 -63 -17
-169 -107 -47 -49 -56 -101 -188 -65 -42 -57 -15 0 0 0 0 0 0 0 0 0 -3 -59 -65 -63 -76 -68 -76 -63 -89 -63 -37 -33 -69 -80 -71 -46 -35 -72 -87 -55 -38 -62 -30 -114 -34 -54 -102 -97 -70
-59 -125 -22 -35 -39 -54 -41 -39 -44 -103 -126 -113 -113 0 0 0 0 0 0 0 0 -90 -57 -83 -156 -86 -145 -44 -84 -39 -28 -43 -62 -55 -69 -68 -29 -58 -59 -48 -37 -92 -81 -38 -69 -65 -84 -89 -92
-1 -1 -6 -34 -1 -1 -81 -22 -19 -40 -44 -63 -52 -77 0 0 0 0 0 0 -27 -87 -114 -94 -121 -97 -107 -77 -21 -36 -24 -69 -71 -71 -82 -88 -82 -68 -56 -33 -37 -160 -120 -37 -33 -54 -78 -91 -76
-3 -20 -1 0 0 0 -3 -1 -25 -29 -43 -34 -59 -37 -103 -68 0 0 0 0 -27 -164 -88 -148 -55 -86 -77 -208 -80 -25 -32 -75 -147 -108 -42 -101 -76 -50 -84 -48 -70 -48 -167 -43 -67 -49 -79 -77 -81
0 -1 0 0 0 0 0 0 -45 -46 -28 -27 -34 -11 -13 -85 0 0 0 0 0 -162 -171 -90 -59 -91 -35 -97 -149 -77 -48 -68 -53 -44 -59 -85 -59 -115 -69 -57 -76 -63 -41 -71 -94 -54 -66 -50 -55
0 0 0 0 0 0 0 0 -9 -69 -48 -43 -22 -23 -15 -16 -118 -118 -56 -3 0 -164 -161 -109 -66 -68 -48 -30 -71 -89 -64 -59 -46 -56 -63 -67 -90 -59 -83 -93 -61 -51 -49 -43 -59 -68 -59 -24 -65
0 0 0 0 0 0 0 0 0 -58 -49 -43 -17 -80 -33 -21 -217 -153 -126 -102 -55 -208 -191 -166 -88 -55 -83 -54 -27 -58 -24 -66 -50 -50 -55 -58 -74 -104 -98 -67 -112 -40 -56 -57 -59 -23 -34 -39 -31
0 0 0 0 0 0 0 0 0 -38 -68 -144 -160 -78 -217 -215 -272 -84 -46 -122 -51 -55 -190 -179 -151 -108 -99 -124 -83 -27 -23 -31 -33 -35 -65 -72 -105 -80 -103 -113 -84 -53 -39 -65 -104 -57 -24 -19 -55
0 0 0 0 0 0 0 0 -21 -70 -33 -21 -16 -205 -154 -206 -126 -249 -37 -234 -152 -65 -28 -127 -179 -135 -152 -132 -123 -83 -52 -30 -16 -21 -12 -35 -67 -97 -101 -137 -106 -107 -51 -45 -35 -76 -35 -44 -42
0 0 0 0 0 0 0 -31 -37 -88 -97 -147 -171 -164 -73 -111 -279 -20 -15 -182 -184 -135 -118 -19 -72 -135 -130 -139 -157 -172 -78 -39 -28 -40 -48 -11 -43 -78 -78 -93 -132 -92 -100 -29 -29 -39 -26 -64 -18
0 0 0 0 0 0 -27 -58 -46 -35 -29 -39 -56 -5 0 -37 -9 -3 -55 -87 -114 -112 -17 -3 -35 -40 -80 -147 -139 -149 -146 -111 -50 -19 -36 -33 -10 -32 -28 -80 -97 -88 -90 -40 -16 -91 -63 -15 -23
0 0 0 0 0 0 -12 -45 -44 -41 -35 -36 -34 -47 -57 -50 -21 -24 -13 -11 -32 -33 -117 -54 -102 -9 -21 -23 -58 -89 -156 -145 -134 -60 -28 -39 -21 -5 -64 -54 -45 -111 -69 -67 -38 -55 -67 -42 -16
0 0 0 0 0 0 0 -11 -26 -32 -42 -44 -75 0 0 0 0 0 0 -335 -318 -322 -74 -157 -111 -8 -10 -76 -70 -147 -82 -143 -154 -137 -89 -41 -46 -21 -23 -55 -43 -73 -103 -51 -43 -20 -17 -38 -76
0 0 0 0 0 0 0 -14 -16 -12 -20 -44 0 0 0 0 0 0 0 0 0 0 0 -21 -253 -137 -47 -72 -83 -106 -97 -97 -126 -133 -131 -100 -42 -44 -11 -44 -49 -89 -102 -52 -44 -45 -75 -11 -2
Wind_Speed
27 24 30 27 18 27 nan nan nan 7 4 8 nan nan nan nan nan nan nan nan nan nan 15 9 8 5 2 2 1 2 5 7 7 7 6 6 7 8 9 8 6 4 4 5 6 6 9 11 12
22 31 24 23 22 nan nan nan 8 14 9 nan nan nan nan nan nan nan nan nan nan nan nan 11 4 2 1 2 2 1 3 8 9 5 6 8 9 9 7 4 3 2 3 4 7 10 12 13 13
21 32 16 24 18 nan nan nan nan 4 1 nan nan nan nan nan nan 3 nan nan nan nan 9 7 2 3 5 4 3 0 2 8 8 6 6 7 9 8 5 2 3 3 5 8 11 14 15 17 17
18 20 16 24 nan nan nan nan 11 15 nan nan nan nan nan nan nan nan nan nan nan nan 7 5 3 7 8 5 7 3 2 7 10 11 8 11 9 6 2 1 2 5 10 11 13 15 16 19 21
14 14 20 17 nan nan nan nan 15 7 9 nan nan nan nan nan nan nan nan nan nan 8 8 5 7 10 11 6 4 10 0 5 11 10 9 9 7 3 2 3 3 7 12 14 17 17 17 20 23
nan 16 19 nan nan nan nan nan 18 13 10 nan nan nan nan nan 8 9 8 nan nan 3 3 6 10 10 10 6 4 10 5 16 11 10 9 8 5 4 4 5 8 11 15 18 20 18 18 21 24
nan 25 20 nan nan nan nan nan nan 17 nan nan nan nan nan nan 11 9 7 nan nan nan nan 3 3 6 8 5 7 9 8 12 9 10 8 6 5 6 8 10 14 15 19 19 21 21 22 23 25
nan 21 20 nan nan nan nan nan nan nan nan nan nan nan nan nan nan nan 10 8 nan nan nan nan 5 8 7 2 2 9 5 6 16 12 8 6 7 9 11 15 16 20 22 22 23 23 24 26 25
31 26 17 nan nan nan nan nan nan nan nan nan nan nan nan nan nan nan nan 11 nan nan nan 6 12 18 21 20 13 14 16 13 13 10 8 10 12 11 14 19 19 26 26 26 26 27 26 25 29
nan 19 23 nan nan nan nan nan nan nan nan nan nan nan nan nan nan nan nan nan 13 14 12 10 13 17 13 15 23 27 19 18 18 13 12 12 13 13 16 19 26 31 29 29 28 29 27 23 26
17 19 15 10 nan nan nan nan nan nan nan nan nan nan nan nan nan nan nan 17 16 13 9 nan 10 13 9 7 13 16 16 20 17 11 11 11 12 12 16 19 23 23 28 21 22 23 23 26 22
13 25 5 7 7 11 nan nan nan nan nan nan nan nan nan nan nan nan nan nan nan 14 9 11 11 9 9 5 9 10 16 17 14 10 8 7 11 12 17 17 23 21 18 19 16 16 14 26 28
13 10 4 2 4 6 5 nan nan nan nan nan nan nan nan nan nan nan nan nan nan 12 10 8 5 4 6 5 7 7 15 14 11 9 9 9 9 12 14 16 21 17 15 14 16 18 11 14 23
1 8 2 6 7 7 5 7 nan nan nan nan nan nan nan nan nan nan nan nan nan 12 11 8 5 3 4 7 6 8 13 12 10 9 8 12 10 9 10 15 20 18 14 13 13 19 16 15 20
8 10 3 8 7 8 5 4 nan nan nan nan nan nan nan nan nan nan nan nan nan 10 12 8 5 2 0 4 5 9 10 8 10 7 6 8 7 8 13 17 14 13 13 12 15 16 18 13 14
11 3 6 14 12 12 7 14 nan nan nan nan nan nan nan nan nan nan nan nan nan 12 12 10 6 2 2 3 7 6 9 12 9 6 4 5 8 8 10 13 13 11 12 12 13 14 11 10 9
16 nan 12 5 12 11 nan 9 19 19 nan nan nan nan nan nan nan nan nan nan nan nan nan nan 6 5 4 3 5 7 7 13 10 8 4 3 4 7 7 10 10 8 11 15 13 12 10 11 12
nan 11 20 11 14 11 15 9 17 nan nan nan nan nan nan nan nan nan nan nan nan nan nan 7 nan 6 nan 5 6 7 8 10 16 9 5 2 3 5 6 8 7 9 13 15 14 13 12 9 13
nan nan nan 18 nan nan 15 12 20 19 16 22 24 nan nan nan nan nan nan nan nan 15 nan 9 nan 9 7 7 8 9 8 10 16 13 6 3 4 2 5 3 7 5 8 10 11 10 10 11 10
nan nan nan nan nan nan nan nan 19 21 17 20 22 23 nan nan nan nan nan nan nan nan 13 8 11 9 7 nan 8 9 8 6 12 17 10 7 5 4 7 4 4 7 7 3 3 2 4 2 7
nan nan nan nan nan nan nan nan nan 22 13 16 15 20 21 nan nan nan nan nan nan nan nan 12 9 8 7 10 nan 9 11 10 12 18 15 9 8 7 7 6 6 5 4 3 3 2 2 1 1
nan nan nan nan nan nan nan nan nan 23 20 19 20 19 24 24 nan nan nan nan nan 16 16 13 13 11 8 7 9 9 10 11 13 18 16 11 9 9 8 8 9 7 8 4 4 3 5 5 6
nan nan nan nan nan nan nan nan nan 30 18 16 30 36 19 27 32 nan nan nan nan nan 17 15 14 15 12 7 9 10 11 12 17 18 17 13 11 9 7 7 9 9 9 10 10 8 12 10 11
nan nan nan nan nan nan nan nan nan 23 25 25 29 29 33 22 36 22 26 23 14 7 14 13 14 15 14 11 10 7 9 10 14 16 18 13 13 10 7 6 6 6 5 8 10 11 13 13 17
nan nan nan nan nan nan nan nan 6 31 38 43 35 37 22 42 42 nan nan 11 12 24 1 14 15 12 15 15 12 13 11 8 12 14 15 18 16 13 10 8 8 6 7 7 9 10 11 11 16
nan nan nan nan nan nan nan nan 19 35 42 46 47 46 47 45 nan 32 34 33 22 22 16 13 14 11 10 13 12 12 14 14 13 13 18 20 18 16 13 11 11 9 10 9 12 14 15 16 18
nan nan nan nan nan nan nan 16 26 30 39 nan nan nan nan nan nan nan 49 40 34 29 21 33 27 6 11 14 15 14 15 15 14 19 18 21 21 20 20 16 14 15 15 17 17 17 17 17 19
nan nan nan nan nan nan nan nan 15 29 42 nan nan nan nan nan nan nan 52 nan nan nan 34 35 36 23 17 18 13 17 19 17 17 18 21 21 21 23 24 22 20 19 21 21 21 19 20 18 19
nan nan nan nan nan nan nan 2 19 29 nan nan nan nan nan nan nan nan nan nan nan nan nan 41 42 33 25 12 20 22 21 22 20 19 19 22 23 26 29 26 26 24 22 23 23 24 22 19 16
nan nan nan nan nan nan nan nan nan nan nan nan nan nan nan nan nan nan nan nan nan nan nan nan nan 44 37 33 20 22 21 26 25 24 20 24 24 26 25 30 28 29 29 29 25 21 20 21 21
Wind_Direction
61 72 71 73 86 65 nan nan nan 299 153 100 nan nan nan nan nan nan nan nan nan nan 130 125 106 99 87 150 134 154 146 186 150 156 164 161 141 132 130 124 112 102 72 57 53 39 53 52 45
87 82 76 68 63 nan nan nan 313 334 344 nan nan nan nan nan nan nan nan nan nan nan nan 145 135 108 56 309 257 111 186 171 165 162 151 149 137 142 136 132 116 85 45 71 74 73 67 59 56
58 100 80 78 55 nan nan nan nan 320 296 nan nan nan nan nan nan 66 nan nan nan nan 159 134 239 275 312 293 258 33 150 179 172 163 145 152 157 152 153 131 64 81 70 69 67 68 69 69 65
50 87 89 83 nan nan nan nan 314 314 nan nan nan nan nan nan nan nan nan nan nan nan 159 168 272 307 303 280 248 197 139 191 167 146 170 170 161 163 143 94 90 104 79 73 74 76 73 74 72
101 73 81 66 nan nan nan nan 4 326 306 nan nan nan nan nan nan nan nan nan nan 184 179 192 272 279 289 303 329 210 231 146 176 153 174 163 153 137 64 56 92 94 82 79 81 76 74 75 76
nan 71 70 nan nan nan nan nan 338 334 343 nan nan nan nan nan 346 16 320 nan nan 253 212 241 277 280 289 291 268 213 133 139 144 149 165 156 133 84 59 89 91 89 91 86 85 84 80 76 77
nan 103 73 nan nan nan nan nan nan 351 nan nan nan nan nan nan 5 9 345 nan nan nan nan 254 248 313 312 297 266 183 149 130 155 149 142 115 85 69 76 79 82 88 89 90 93 91 84 78 80
nan 107 84 nan nan nan nan nan nan nan nan nan nan nan nan nan nan nan 342 348 nan nan nan nan 111 119 80 24 266 157 162 153 149 144 130 99 62 64 72 80 92 90 90 88 87 87 88 87 85
54 67 57 nan nan nan nan nan nan nan nan nan nan nan nan nan nan nan nan 343 nan nan nan 52 95 91 100 82 91 122 122 111 135 117 98 84 90 81 80 91 96 91 89 87 83 82 83 88 91
nan 66 62 nan nan nan nan nan nan nan nan nan nan nan nan nan nan nan nan nan 9 20 45 74 94 89 89 82 96 123 116 131 133 125 96 91 92 89 92 100 97 99 95 93 85 77 76 83 92
40 45 48 45 nan nan nan nan nan nan nan nan nan nan nan nan nan nan nan 0 14 12 32 nan 65 56 86 89 103 134 135 137 129 103 95 95 110 113 108 113 113 111 109 104 90 79 82 81 80
51 55 28 56 75 37 nan nan nan nan nan nan nan nan nan nan nan nan nan nan nan 0 354 28 32 41 62 81 87 110 139 140 128 122 124 122 112 101 105 109 113 112 119 114 116 89 72 85 72
43 46 352 327 347 356 23 nan nan nan nan nan nan nan nan nan nan nan nan nan nan 345 343 21 43 76 61 73 108 121 150 151 141 139 127 120 117 112 118 116 119 123 140 134 126 105 106 120 113
237 239 160 289 324 10 2 113 nan nan nan nan nan nan nan nan nan nan nan nan nan 342 345 340 47 47 156 153 155 164 163 163 155 134 130 135 118 130 127 128 136 153 145 144 125 110 107 103 95
290 353 7 299 346 24 5 140 nan nan nan nan nan nan nan nan nan nan nan nan nan 339 325 340 8 140 52 145 153 177 175 185 170 147 145 152 152 148 152 144 148 132 143 140 122 114 113 107 105
298 250 349 0 353 91 28 45 nan nan nan nan nan nan nan nan nan nan nan nan nan 326 329 334 342 288 222 168 149 172 179 201 201 177 158 146 137 145 138 145 156 142 152 148 128 115 119 116 113
339 nan 43 333 42 350 nan 26 47 35 nan nan nan nan nan nan nan nan nan nan nan nan nan nan 309 297 276 197 166 172 169 203 208 199 195 159 144 126 142 160 144 159 159 158 140 149 154 142 127
nan 0 2 16 1 2 349 351 11 nan nan nan nan nan nan nan nan nan nan nan nan nan nan 284 nan 290 nan 237 197 179 193 208 215 205 207 237 194 134 177 156 153 192 186 171 169 180 166 161 134
nan nan nan 333 nan nan 349 2 355 355 7 357 6 nan nan nan nan nan nan nan nan 330 nan 282 nan 311 277 235 227 214 198 212 198 223 236 247 230 190 226 149 150 196 208 185 196 191 181 167 140
nan nan nan nan nan nan nan nan 352 352 353 0 2 354 nan nan nan nan nan nan nan nan 323 307 273 301 272 nan 233 235 240 224 216 216 252 263 258 259 229 205 154 157 219 256 262 263 199 168 164
nan nan nan nan nan nan nan nan nan 5 315 321 342 336 339 nan nan nan nan nan nan nan nan 320 291 311 283 281 nan 226 236 231 224 216 228 239 258 262 248 229 203 177 232 319 308 4 329 285 264
nan nan nan nan nan nan nan nan nan 332 333 335 314 327 330 311 nan nan nan nan nan 336 338 339 316 307 290 289 282 263 246 260 236 216 240 239 254 256 254 248 235 230 232 249 293 321 321 297 285
nan nan nan nan nan nan nan nan nan 316 315 319 261 280 252 277 256 nan nan nan nan nan 331 338 327 320 323 281 273 283 272 242 236 226 233 239 244 260 261 253 253 255 244 253 267 270 284 286 286
nan nan nan nan nan nan nan nan nan 304 288 283 296 245 249 252 252 226 204 181 188 314 314 312 324 331 327 321 305 285 295 275 245 225 229 240 231 243 259 272 283 294 289 275 281 278 295 301 293
nan nan nan nan nan nan nan nan 235 267 274 283 283 273 279 298 277 nan nan 321 295 210 134 318 313 319 324 325 318 305 296 283 266 239 226 243 249 243 250 268 266 286 302 310 298 299 304 303 299
nan nan nan nan nan nan nan nan 230 272 273 275 280 283 284 291 nan 303 296 304 310 263 171 244 279 294 296 304 308 304 295 276 267 255 239 236 247 258 262 263 266 281 286 289 297 288 292 297 306
nan nan nan nan nan nan nan 214 234 251 261 nan nan nan nan nan nan nan 302 298 302 304 313 273 228 54 313 298 285 284 286 292 273 270 257 247 249 247 267 268 270 273 287 288 292 292 291 297 306
nan nan nan nan nan nan nan nan 265 260 256 nan nan nan nan nan nan nan 282 nan nan nan 278 272 262 244 252 273 275 275 283 283 288 270 272 264 251 259 259 273 275 279 282 288 293 286 286 290 293
nan nan nan nan nan nan nan 288 267 269 nan nan nan nan nan nan nan nan nan nan nan nan nan 266 265 253 228 236 303 295 284 283 274 277 273 270 267 258 260 270 274 275 277 282 285 281 284 287 297
nan nan nan nan nan nan nan nan nan nan nan nan nan nan nan nan nan nan nan nan nan nan nan nan nan 257 240 229 274 297 288 284 285 279 273 268 269 269 268 265 268 274 279 277 284 286 286 281 282